Location: Abyssinia Baptist Church
(32.7840°N, 96.7578°W)
Time: 12:42:45
(UTC+00:00)

Envisat - Visible Passes

Search period start: 25 May 2022 00:00
Search period end: 04 June 2022 00:00
Orbit: 764 x 765 km, 98.2° (Epoch: 22 May)

Date Brightness Start Highest point End Pass type
(mag) Time Alt. Az. Time Alt. Az. Time Alt. Az.
25 May 4.2 10:31:43 10° NNE 10:36:32 43° E 10:41:20 10° S visible
26 May 5.5 09:56:03 10° NE 09:59:25 18° E 10:02:47 10° SE visible
28 May 4.7 10:20:12 10° NE 10:24:45 32° E 10:29:16 10° SSE visible
29 May 5.7 09:45:13 10° ENE 09:47:35 13° E 09:49:56 10° ESE visible
30 May 3.6 10:44:57 10° NNE 10:49:58 61° E 10:54:58 10° S visible
31 May 5.1 10:08:47 10° NE 10:12:56 25° E 10:17:02 10° SSE visible
02 Jun 4.1 10:33:19 10° NNE 10:38:11 46° E 10:43:02 10° S visible
03 Jun 5.5 09:57:32 10° NE 10:01:05 19° E 10:04:36 10° SE visible
